This demonstration page uses our WeatherBlox Daily Observations layout. Learn more.

Left ArrowRight Arrow

Hourly Observations for April 20, 2015

Temp ( °F °C ) Dew Point ( °F °C ) Humidity (%) Winds ( mph kmh ) Pressure ( in mb ) Visibility ( mi km ) Precip ( " mm )
12:15 am 00:15 Cloudy 59 15 N/A N/A WSW 18 30 29.35 994 3 4.82802 N/A
12:36 am 00:36 Cloudy 59 15 N/A N/A SW 21 33 29.35 994 7 11.26538 N/A
12:56 am 00:56 Cloudy 59 15 N/A N/A WSW 25 41 29.35 994 10 16.0934 N/A
1:15 am 01:15 Cloudy 59 15 N/A N/A WSW 22 35 29.38 995 10 16.0934 N/A
1:36 am 01:36 Cloudy 59 15 N/A N/A WSW 20 31 29.38 995 10 16.0934 N/A
1:56 am 01:56 Cloudy 59 15 N/A N/A SW 21 33 29.38 995 10 16.0934 N/A
2:15 am 02:15 Cloudy 57 14 N/A N/A SW 17 28 29.41 996 10 16.0934 N/A
2:36 am 02:36 Cloudy 57 14 N/A N/A SW 17 28 29.41 996 10 16.0934 N/A
2:56 am 02:56 Cloudy 57 14 N/A N/A WSW 13 20 29.41 996 10 16.0934 N/A
3:15 am 03:15 Cloudy 57 14 N/A N/A SW 17 28 29.41 996 10 16.0934 N/A
3:36 am 03:36 Cloudy 57 14 N/A N/A SW 16 26 29.41 996 10 16.0934 N/A
3:56 am 03:56 Cloudy 57 14 N/A N/A SW 14 22 29.41 996 10 16.0934 N/A
4:16 am 04:16 Cloudy 57 14 N/A N/A SSW 13 20 29.41 996 10 16.0934 N/A
4:36 am 04:36 Cloudy 57 14 N/A N/A SSW 12 19 29.41 996 10 16.0934 N/A
4:55 am 04:55 Cloudy 57 14 N/A N/A SSW 14 22 29.41 996 10 16.0934 N/A
5:16 am 05:16 Cloudy 57 14 N/A N/A SSW 12 19 29.41 996 10 16.0934 N/A
5:36 am 05:36 Cloudy 57 14 N/A N/A SSW 13 20 29.41 996 10 16.0934 N/A
5:56 am 05:56 Cloudy 57 14 N/A N/A SSW 10 17 29.41 996 10 16.0934 N/A
6:16 am 06:16 Cloudy 57 14 N/A N/A SSW 8 13 29.38 995 10 16.0934 N/A
6:36 am 06:36 Cloudy 57 14 N/A N/A SW 7 11 29.38 995 4 6.43736 N/A
6:56 am 06:56 Cloudy 57 14 N/A N/A WSW 16 26 29.41 996 2.5 4.02335 N/A
7:16 am 07:16 Cloudy 55 13 N/A N/A SW 17 28 29.41 996 4 6.43736 N/A
7:36 am 07:36 Cloudy 55 13 N/A N/A SW 9 15 29.41 996 5 8.0467 N/A
7:56 am 07:56 Cloudy 55 13 N/A N/A SSW 8 13 29.41 996 10 16.0934 N/A
8:16 am 08:16 Cloudy 57 14 N/A N/A SW 15 24 29.41 996 10 16.0934 N/A
8:36 am 08:36 Cloudy 57 14 N/A N/A SW 16 26 29.41 996 10 16.0934 N/A
8:56 am 08:56 Cloudy 57 14 N/A N/A SW 15 24 29.41 996 10 16.0934 N/A
9:16 am 09:16 Cloudy 54 12 N/A N/A WSW 23 37 29.44 997 3 4.82802 N/A
9:35 am 09:35 Cloudy 54 12 N/A N/A W 23 37 29.44 997 10 16.0934 N/A
9:56 am 09:56 Cloudy 54 12 N/A N/A W 20 31 29.44 997 10 16.0934 N/A
10:16 am 10:16 Cloudy 54 12 N/A N/A WSW 23 37 29.47 998 10 16.0934 N/A
10:35 am 10:35 Cloudy 52 11 N/A N/A WSW 24 39 29.47 998 10 16.0934 N/A
10:56 am 10:56 Cloudy 52 11 N/A N/A W 23 37 29.5 999 10 16.0934 N/A
11:16 am 11:16 Cloudy 52 11 43 6 72 72 W 20 31 29.5 999 10 16.0934 N/A
11:35 am 11:35 Cloudy 52 11 43 6 72 72 W 23 37 29.53 1000 10 16.0934 N/A
11:56 am 11:56 Cloudy 52 11 48 9 88 88 WSW 26 43 29.53 1000 7 11.26538 N/A
12:16 pm 12:16 Cloudy 52 11 43 6 72 72 W 23 37 29.53 1000 10 16.0934 N/A
12:35 pm 12:35 Cloudy 50 10 43 6 76 76 WSW 20 31 29.53 1000 10 16.0934 N/A
12:56 pm 12:56 Cloudy 50 10 43 6 76 76 WSW 20 31 29.56 1001 10 16.0934 N/A
1:16 pm 13:16 Cloudy 52 11 41 5 67 67 WSW 18 30 29.56 1001 10 16.0934 N/A
1:35 pm 13:35 Cloudy 50 10 39 4 67 67 W 20 31 29.56 1001 10 16.0934 N/A
1:56 pm 13:56 Mostly Cloudy 50 10 39 4 67 67 WSW 15 24 29.56 1001 10 16.0934 N/A
2:16 pm 14:16 Partly Cloudy 54 12 41 5 63 63 WSW 16 26 29.56 1001 10 16.0934 N/A
2:36 pm 14:36 Partly Cloudy 52 11 37 3 58 58 WSW 20 31 29.59 1002 10 16.0934 N/A
2:56 pm 14:56 Partly Cloudy 52 11 37 3 58 58 WSW 21 33 29.59 1002 10 16.0934 N/A
3:16 pm 15:16 Partly Cloudy 52 11 37 3 58 58 W 21 33 29.59 1002 10 16.0934 N/A
3:36 pm 15:36 Partly Cloudy 54 12 36 2 51 51 W 24 39 29.59 1002 10 16.0934 N/A
3:56 pm 15:56 Partly Cloudy 54 12 36 2 51 51 W 24 39 29.59 1002 10 16.0934 N/A
4:16 pm 16:16 Partly Cloudy 52 11 36 2 54 54 W 17 28 29.62 1003 10 16.0934 N/A
4:36 pm 16:36 Partly Cloudy 52 11 37 3 58 58 W 24 39 29.62 1003 10 16.0934 N/A
4:56 pm 16:56 Partly Cloudy 52 11 34 1 50 50 W 23 37 29.62 1003 10 16.0934 N/A
5:15 pm 17:15 Partly Cloudy 54 12 32 0 44 44 W 21 33 29.62 1003 10 16.0934 N/A
5:36 pm 17:36 Partly Cloudy 54 12 30 -1 41 41 W 22 35 29.62 1003 10 16.0934 N/A
5:56 pm 17:56 Partly Cloudy 52 11 28 -2 41 41 W 24 39 29.65 1004 10 16.0934 N/A
6:15 pm 18:15 Partly Cloudy 52 11 28 -2 41 41 W 28 44 29.65 1004 10 16.0934 N/A
6:36 pm 18:36 Partly Cloudy 50 10 30 -1 47 47 W 23 37 29.65 1004 10 16.0934 N/A
6:56 pm 18:56 Partly Cloudy 50 10 30 -1 47 47 W 21 33 29.65 1004 10 16.0934 N/A
7:15 pm 19:15 Partly Cloudy 50 10 30 -1 47 47 W 20 31 29.68 1005 10 16.0934 N/A
7:36 pm 19:36 Mostly Cloudy 48 9 32 0 54 54 W 20 31 29.68 1005 10 16.0934 N/A
7:56 pm 19:56 Partly Cloudy 48 9 30 -1 50 50 W 22 35 29.68 1005 10 16.0934 N/A
8:16 pm 20:16 Mostly Cloudy 48 9 28 -2 46 46 W 21 33 29.71 1006 10 16.0934 N/A
8:36 pm 20:36 Mostly Cloudy 48 9 28 -2 46 46 W 21 33 29.71 1006 10 16.0934 N/A
8:56 pm 20:56 Mostly Cloudy 48 9 28 -2 46 46 W 17 28 29.71 1006 10 16.0934 N/A
9:16 pm 21:16 Mostly Cloudy 48 9 30 -1 50 50 WSW 14 22 29.74 1007 10 16.0934 N/A
9:36 pm 21:36 Partly Cloudy 48 9 30 -1 50 50 W 14 22 29.74 1007 10 16.0934 N/A
9:56 pm 21:56 Partly Cloudy 46 8 30 -1 53 53 W 13 20 29.77 1008 10 16.0934 N/A
10:16 pm 22:16 Partly Cloudy 46 8 30 -1 53 53 W 17 28 29.77 1008 10 16.0934 N/A
10:36 pm 22:36 Partly Cloudy 46 8 30 -1 53 53 W 15 24 29.77 1008 10 16.0934 N/A
10:56 pm 22:56 Partly Cloudy 46 8 28 -2 50 50 W 14 22 29.8 1009 10 16.0934 N/A
11:16 pm 23:16 Partly Cloudy 46 8 28 -2 50 50 W 15 24 29.8 1009 10 16.0934 N/A
11:36 pm 23:36 Partly Cloudy 46 8 28 -2 50 50 W 12 19 29.8 1009 10 16.0934 N/A
11:56 pm 23:56 Partly Cloudy 45 7 30 -1 57 57 WSW 13 20 29.8 1009 10 16.0934 N/A

Powered by AerisWeather